Location: Contre
(49.7477°N, 2.0963°E)
Time: 14:36:37
(UTC+00:00)

Meteor 2-12 Rocket - Pass Details

Date: 10 August 2024
Orbit: 936 x 956 km, 82.5° (Epoch: 14 September)

Event Time Altitude Azimuth Distance (km) Brightness Sun altitude
Rises 00:34:02 0° 350° (N) 3,612 8.6 -24.3°
Reaches altitude 10° 00:36:31 10° 351° (N) 2,666 7.7 -24.2°
Maximum altitude 00:42:38 82° 79° (E) 958 4.4 -24.0°
Enters shadow 00:44:25 49° 161° (SSE) 1,205 4.6 -24.0°
